Location: Franzen
(48.6167°N, 15.3833°E)
Time: 04:54:47
(UTC+00:00)

Altair - Pass Details

Date: 10 August 2021
Orbit: 1501 x 1682 km, 47.2° (Epoch: 21 September)

Event Time Altitude Azimuth Distance (km) Brightness Sun altitude
Rises 02:19:14 0° 279° (W) 4,733 9.7 -12.6°
Reaches altitude 10° 02:22:20 10° 278° (W) 3,727 9.1 -12.2°
Maximum altitude 02:31:40 75° 196° (SSW) 1,562 7.4 -11.1°
Drops below altitude 10° 02:40:47 10° 113° (ESE) 3,649 9.9 -9.9°
Sets 02:43:47 0° 112° (ESE) 4,630 10.5 -9.5°
